Change the Weather History Date:

Thursday, March 7, 2013

  Actual Average Record
Temperature  
Mean Temperature 20 °F -  
Max Temperature 27 °F 22 °F 42 °F (2006)
Min Temperature 12 °F 4 °F -15 °F (2011)
Degree Days  
Heating Degree Days 45    
Month to date heating degree days 311  
Moisture  
Dew Point 16 °F    
Average Humidity 87    
Maximum Humidity 92    
Minimum Humidity 81    
Precipitation  
Precipitation 0.00 in - - ()
Month to date precipitation 0.40  
Year to date precipitation 1.49  
Sea Level Pressure  
Sea Level Pressure 30.13 in    
Wind  
Wind Speed 12 mph (SSE)    
Max Wind Speed 20 mph    
Max Gust Speed 22 mph    
Averages and records for this station are not official NWS values.
T = Trace of Precipitation, MM = Missing Value Source: NWS Daily Summary

Daily Weather History Graph

Daily Weather History Graph

Search for Another Location

Airport or City:

Trip Planner

Search our weather history database for the weather conditions in past years. The results will help you decide how hot, cold, wet, or windy it might be!

Date:

Astronomy

Mar. 07, 2013 Rise Set
Actual Time 7:14 AM CST 6:40 PM CST
Civil Twilight 6:43 AM CST 7:10 PM CST
Nautical Twilight 6:07 AM CST 7:46 PM CST
Astronomical Twilight 5:31 AM CST 8:22 PM CST
Moon 4:30 AM CST 2:15 PM CST
Length of Visible Light 12h 27m
Length of Day
11h 25m
Waning Crescent, 20% of the Moon is Illuminated
Mar 7
Waning Crescent
Mar 11
New
Mar 19
First Quarter
Mar 27
Full
Apr 2
Last Quarter

Hourly Weather History & Observations

Time (CST) Temp. Windchill Dew Point Humidity Pressure Visibility Wind Dir Wind Speed Gust Speed Precip Events Conditions
12:52 AM 12.9 °F -3.4 °F 9.0 °F 84% 30.14 in - ESE 16.1 mph - N/A   Unknown
1:52 AM 14.0 °F -2.0 °F 10.0 °F 84% 30.13 in - ESE 16.1 mph - N/A   Unknown
2:52 AM 15.1 °F 1.8 °F 12.0 °F 88% 30.12 in - ESE 11.5 mph - N/A   Unknown
3:52 AM 15.1 °F -1.1 °F 12.0 °F 88% 30.10 in - ESE 17.3 mph - N/A   Unknown
4:52 AM 14.0 °F -0.2 °F 10.9 °F 88% 30.08 in - ESE 12.7 mph - N/A   Unknown
5:52 AM 12.9 °F -2.2 °F 10.0 °F 88% 30.09 in - ESE 13.8 mph - N/A   Unknown
6:52 AM 12.9 °F -1.6 °F 10.0 °F 88% 30.09 in - ESE 12.7 mph - N/A   Unknown
7:52 AM 14.0 °F 0.5 °F 10.9 °F 88% 30.11 in - ESE 11.5 mph - N/A   Unknown
8:52 AM 16.0 °F 1.1 °F 12.9 °F 88% 30.09 in - ESE 15.0 mph - N/A   Unknown
9:52 AM 18.0 °F 6.1 °F 15.1 °F 88% 30.12 in - SSE 10.4 mph - N/A   Unknown
10:52 AM 19.9 °F 7.9 °F 17.1 °F 89% 30.12 in - SSE 11.5 mph - N/A   Unknown
11:52 AM 21.9 °F 9.2 °F 19.0 °F 89% 30.10 in - SSE 13.8 mph - N/A   Unknown
12:52 PM 24.1 °F 13.1 °F 21.0 °F 88% 30.09 in - SSE 11.5 mph - N/A   Unknown
1:52 PM 24.1 °F 16.0 °F 21.9 °F 91% 30.12 in - South 6.9 mph - N/A   Unknown
2:52 PM 26.1 °F 18.4 °F 21.9 °F 84% 30.10 in - SSW 6.9 mph - N/A   Unknown
3:52 PM 26.1 °F 17.6 °F 23.0 °F 88% 30.13 in - SSW 8.1 mph - N/A   Unknown
4:52 PM 27.0 °F 20.5 °F 23.0 °F 85% 30.13 in - SSW 5.8 mph - N/A   Unknown
5:52 PM 26.1 °F - 21.9 °F 84% 30.14 in - Calm Calm - N/A   Unknown
6:52 PM 25.0 °F - 21.9 °F 88% 30.16 in - Calm Calm - N/A   Unknown
7:52 PM 23.0 °F 18.4 °F 21.0 °F 92% 30.17 in - South 3.5 mph - N/A   Unknown
8:52 PM 19.9 °F - 17.1 °F 89% 30.19 in - Calm Calm - N/A   Unknown
9:52 PM 24.1 °F 16.0 °F 19.9 °F 84% 30.19 in - WNW 6.9 mph - N/A   Unknown
10:52 PM 19.0 °F 9.0 °F 16.0 °F 88% 30.20 in - WNW 8.1 mph - N/A   Unknown
11:52 PM 21.9 °F 13.4 °F 18.0 °F 85% 30.21 in - WNW 6.9 mph - N/A   Unknown